Date String (YYYY-MM-DD hh:mm:ss) UTC,Instrument flags,Ambient pressure (hPa),Sample flow (lpm),Bypass flow (lpm),Sample temperature (°C),Ambient temperature (°C),ASC tube jacket temperature (°C),LED temperature (°C),Box temperature (°C),Sample RH (%),Span deviation,Mass concentration (μg/m³),Mass concentration (μg/m³),Mass concentration (μg/m³)
DateTimeUTC,F1_M11,P_M11,Q1_M11,Q2_M11,T1_M11,T2_M11,T3_M11,T4_M11,T5_M11,U1_M11,ZSPAN_M11,X0_M11,X2_M11,X1_M11
2022-04-22 14:00:00,,0815.9,4.99,0.00,29.2,28.3,00.0,38.0,30.9,12.3,0002.3,0021.67,0008.28,0005.22
2022-04-22 14:01:00,,0816.0,5.00,0.00,29.2,28.3,00.0,38.0,31.0,12.3,0001.2,0021.29,0008.29,0005.22
2022-04-22 14:02:00,,0816.0,5.00,0.00,29.2,28.3,00.0,38.0,31.0,12.6,0000.0,0021.54,0008.30,0005.24
2022-04-22 14:03:00,,0816.0,4.99,0.00,29.2,28.3,00.0,38.0,31.0,13.1,0001.0,0022.16,0008.36,0005.28
2022-04-22 14:04:00,,0816.1,5.01,0.00,29.2,28.4,00.0,38.1,31.0,13.6,0002.7,0022.72,0008.46,0005.32
2022-04-22 14:05:00,,0816.0,4.98,0.00,29.2,28.3,00.0,38.1,30.9,13.7,0002.8,0023.03,0008.58,0005.35
2022-04-22 14:06:00,,0816.0,5.01,0.00,29.2,28.3,00.0,38.1,30.9,13.8,0002.5,0022.89,0008.61,0005.37
2022-04-22 14:07:00,,0815.9,5.01,0.00,29.2,28.3,00.0,38.1,30.9,13.7,0002.2,0022.52,0008.65,0005.39
2022-04-22 14:08:00,,0816.0,4.99,0.00,29.2,28.3,00.0,38.1,31.0,13.5,0001.9,0022.15,0008.76,0005.41
2022-04-22 14:09:00,,0815.9,5.01,0.00,29.2,28.3,00.0,38.1,31.0,13.1,0001.8,0022.59,0008.86,0005.40
2022-04-22 14:10:00,,0815.8,4.99,0.00,29.2,28.3,00.0,38.1,31.0,13.4,0001.3,0023.42,0008.91,0005.39
2022-04-22 14:11:00,,0815.8,4.99,0.00,29.2,28.3,00.0,38.1,31.0,13.1,0001.7,0024.91,0008.93,0005.40
2022-04-22 14:12:00,,0815.8,5.01,0.00,29.2,28.4,00.0,38.1,31.0,13.1,0002.7,0025.14,0008.89,0005.40
2022-04-22 14:13:00,,0815.8,4.99,0.00,29.2,28.4,00.0,38.1,31.0,13.1,0002.1,0025.95,0008.86,0005.40
2022-04-22 14:14:00,,0815.8,4.99,0.00,29.2,28.4,00.0,38.1,31.0,13.2,0001.5,0026.24,0008.88,0005.39
2022-04-22 14:15:00,,0815.8,5.01,0.00,29.3,28.4,00.0,38.1,31.0,13.1,0000.0,0026.15,0008.85,0005.38
2022-04-22 14:16:00,,0815.8,4.99,0.00,29.3,28.4,00.0,38.1,31.0,13.0,0000.0,0026.32,0008.82,0005.37
2022-04-22 14:17:00,,0815.8,5.02,0.00,29.3,28.4,00.0,38.1,31.1,13.0,0000.0,0026.32,0008.79,0005.36
2022-04-22 14:18:00,,0815.8,4.99,0.00,29.3,28.4,00.0,38.1,31.0,13.0,0000.0,0027.72,0008.78,0005.34
2022-04-22 14:19:00,,0815.8,4.99,0.00,29.3,28.4,00.0,38.1,31.0,12.8,0000.0,0027.84,0008.71,0005.33
2022-04-22 14:20:00,,0815.8,5.02,0.00,29.3,28.4,00.0,38.2,31.0,12.6,0000.0,0028.13,0008.67,0005.33
2022-04-22 14:21:00,,0815.8,4.99,0.00,29.3,28.5,00.0,38.2,31.1,12.7,0000.0,0028.32,0008.64,0005.32
2022-04-22 14:22:00,,0815.8,4.98,0.00,29.3,28.5,00.0,38.2,31.1,12.8,0000.0,0027.51,0008.66,0005.33
2022-04-22 14:23:00,,0815.7,5.02,0.00,29.3,28.5,00.0,38.2,31.1,12.9,0000.0,0026.92,0008.69,0005.33
2022-04-22 14:24:00,,0815.7,5.00,0.00,29.3,28.5,00.0,38.2,31.1,12.8,0002.1,0025.41,0008.67,0005.35
2022-04-22 14:25:00,,0815.7,4.99,0.00,29.4,28.5,00.0,38.2,31.1,12.7,0003.5,0024.31,0008.58,0005.34
2022-04-22 14:26:00,,0815.6,5.00,0.00,29.4,28.5,00.0,38.2,31.1,12.7,0002.6,0023.70,0008.56,0005.32
2022-04-22 14:27:00,,0815.9,5.00,0.00,29.4,28.5,00.0,38.2,31.1,12.8,0002.2,0023.08,0008.52,0005.31
2022-04-22 14:28:00,,0816.0,4.99,0.00,29.4,28.5,00.0,38.2,31.2,12.8,0002.1,0022.83,0008.54,0005.30
2022-04-22 14:29:00,,0816.0,5.01,0.00,29.4,28.6,00.0,38.3,31.2,12.8,0002.6,0021.16,0008.43,0005.31
2022-04-22 14:30:00,,0815.9,4.99,0.00,29.4,28.6,00.0,38.3,31.2,12.9,0002.4,0020.30,0008.38,0005.32
2022-04-22 14:31:00,,0816.0,4.99,0.00,29.4,28.6,00.0,38.3,31.2,12.9,0001.9,0019.38,0008.25,0005.31
2022-04-22 14:32:00,,0816.0,5.02,0.00,29.5,28.6,00.0,38.3,31.2,12.9,0002.8,0018.13,0008.15,0005.28
2022-04-22 14:33:00,,0816.0,4.98,0.00,29.5,28.6,00.0,38.3,31.2,12.8,0002.4,0018.08,0008.12,0005.26
2022-04-22 14:34:00,,0816.0,4.99,0.00,29.5,28.6,00.0,38.3,31.3,12.8,0001.8,0018.37,0008.14,0005.25
2022-04-22 14:35:00,,0815.9,5.01,0.00,29.5,28.6,00.0,38.3,31.2,13.0,0000.5,0018.29,0008.07,0005.22
2022-04-22 14:36:00,,0815.8,4.99,0.00,29.5,28.6,00.0,38.3,31.3,12.8,0000.0,0018.50,0008.14,0005.22
2022-04-22 14:37:00,,0815.4,5.00,0.00,29.5,28.7,00.0,38.4,31.3,12.7,0000.0,0018.63,0008.07,0005.20
2022-04-22 14:38:00,,0815.3,5.02,0.00,29.5,28.7,00.0,38.4,31.3,12.8,0000.0,0018.87,0008.08,0005.18
2022-04-22 14:39:00,,0815.2,4.99,0.00,29.6,28.7,00.0,38.4,31.3,12.6,0000.0,0019.22,0008.08,0005.18
2022-04-22 14:40:00,,0815.2,5.00,0.00,29.6,28.7,00.0,38.4,31.4,12.6,0000.0,0019.73,0008.07,0005.15
2022-04-22 14:41:00,,0815.2,5.02,0.00,29.6,28.7,00.0,38.4,31.4,12.8,0000.8,0020.28,0008.05,0005.12
2022-04-22 14:42:00,,0815.2,4.99,0.00,29.6,28.8,00.0,38.4,31.4,13.1,0000.6,0021.18,0008.08,0005.11
2022-04-22 14:43:00,,0815.2,5.01,0.00,29.6,28.8,00.0,38.5,31.4,13.3,-000.2,0022.19,0008.20,0005.14
2022-04-22 14:44:00,,0815.2,4.99,0.00,29.7,28.8,00.0,38.5,31.4,13.4,-000.4,0022.71,0008.23,0005.16
2022-04-22 14:45:00,,0815.2,4.99,0.00,29.7,28.8,00.0,38.5,31.4,13.4,0000.1,0022.50,0008.16,0005.17
2022-04-22 14:46:00,,0815.3,5.01,0.00,29.7,28.8,00.0,38.5,31.4,13.2,0000.8,0023.13,0008.28,0005.20
2022-04-22 14:47:00,,0815.2,5.00,0.00,29.7,28.9,00.0,38.5,31.5,13.1,0000.2,0025.33,0008.23,0005.19
2022-04-22 14:48:00,,0815.2,5.00,0.00,29.7,28.9,00.0,38.5,31.5,13.1,0000.1,0026.36,0008.27,0005.20
2022-04-22 14:49:00,,0815.2,5.02,0.00,29.7,28.9,00.0,38.5,31.5,13.0,0000.0,0026.44,0008.31,0005.22
2022-04-22 14:50:00,,0815.2,4.99,0.00,29.7,28.9,00.0,38.6,31.5,12.9,0000.0,0026.45,0008.33,0005.24
2022-04-22 14:51:00,,0815.2,4.99,0.00,29.8,28.9,00.0,38.6,31.5,13.0,-000.0,0026.59,0008.35,0005.26
2022-04-22 14:52:00,,0815.1,5.01,0.00,29.8,28.9,00.0,38.6,31.5,13.0,0000.0,0027.01,0008.45,0005.27
2022-04-22 14:53:00,,0815.2,4.99,0.00,29.8,28.9,00.0,38.6,31.5,12.9,0000.0,0026.46,0008.50,0005.30
2022-04-22 14:54:00,,0815.3,5.01,0.00,29.8,28.9,00.0,38.6,31.6,13.0,0000.0,0026.67,0008.48,0005.28
2022-04-22 14:55:00,,0815.2,5.01,0.00,29.8,28.9,00.0,38.6,31.6,13.2,0000.0,0027.31,0008.51,0005.28
2022-04-22 14:56:00,,0815.2,4.99,0.00,29.8,29.0,00.0,38.7,31.6,13.0,0000.0,0027.55,0008.54,0005.26
2022-04-22 14:57:00,,0815.2,4.99,0.00,29.8,29.0,00.0,38.7,31.6,12.9,-000.4,0028.15,0008.52,0005.24
2022-04-22 14:58:00,,0815.2,5.01,0.00,29.8,29.0,00.0,38.7,31.6,12.9,0000.0,0026.38,0008.55,0005.22
2022-04-22 14:59:00,,0815.2,4.99,0.00,29.9,29.0,00.0,38.7,31.6,12.9,0000.0,0026.00,0008.55,0005.22
